600  
NZUS01 KOTX 242357  
RWROTX  
 
EASTERN WASHINGTON/NORTHERN IDAHO ROUNDUP  
NATIONAL WEATHER SERVICE, SPOKANE WA  
400 PM PST FRI NOV 24 2017  
 
NOTE: "FAIR" INDICATED FEW OR NO CLOUDS BELOW 12,000 FEET WITH NO  
SIGNIFICANT WEATHER AND/OR S TO VISIBILITY
.  
   
..NORTHEAST WASHINGTON AND NORTHERN IDAHO PANHANDLE
 
 
 
CITY SKY/WX TMP DP RH WIND PRES REMARKS
 
SPOKANE INTL MOCLDY 44 35 70 S8 30.07R  
SPOKANE DOWNTO PTCLDY 46 35 65 SW7 30.08S  
DEER PARK MOCLDY 43 35 73 S6 30.07S  
   
..SOUTHEAST WASHINGTON AND SOUTHERN IDAHO PANHANDLE
 
 
 
CITY SKY/WX TMP DP RH WIND PRES REMARKS
 
WALLA WALLA CLEAR 50 38 63 W3 30.09S  
PULLMAN/MOSCOW CLEAR 43 34 70 W5 30.11R  
LOWELL N/A 40 39 97 CALM 30.12S  
   
..COLUMBIA BASIN
 
 
 
CITY SKY/WX TMP DP RH WIND PRES REMARKS
 
EPHRATA MOCLDY 48 30 49 S12 30.04S  
MOSES LAKE PTCLDY 49 36 61 S9 30.06S  
PASCO CLEAR 53 38 56 SW10 30.10S  
HERMISTON CLEAR 52 38 58 W5 30.09S  
PENDLETON CLEAR 48 37 65 N5 30.08F  
   
..EAST SLOPES CASCADES
 
 
 
CITY SKY/WX TMP DP RH WIND PRES REMARKS
 
THE DALLES CLEAR 52 40 63 W8 30.10S  
YAKIMA PTCLDY 49 34 56 SW5 30.07R  
ELLENSBURG CLOUDY 47 35 63 NW9 30.06S  
OMAK CLOUDY 47 35 63 S8 30.02R  
SUNNYSIDE MOCLDY 51 36 56 SW7 30.09R  
   
..SOUTHERN BRITISH COLUMBIA
 
 
 
CITY SKY/WX TMP DP RH WIND PRES REMARKS
 
   
..WESTERN MONTANA
 
 
 
CITY SKY/WX TMP DP RH WIND PRES REMARKS
 
MISSOULA MOCLDY 41 26 55 NW6 30.08S  
   
..NEIGHBORING CITIES
 
 
 
CITY SKY/WX TMP DP RH WIND PRES REMARKS
 
SEATTLE CLOUDY 50 42 74 S7 30.07R  
PORTLAND PTCLDY 54 42 64 S8 30.12S  
BOISE PTCLDY 50 29 44 NE3 30.11R  
GREAT FALLS CLOUDY 41 21 44 SW16 29.93R  
 
CLICK HERE TO GO TO PREVIOUS BULLETINS.

The Nexlab WA Page
The Nexlab ID Page Main Text Page